Year,Month,Day,Hour,Minute,Value (Times are PST for temperature in C)
2008,08,15,05,13,16.00
2008,08,15,05,14,16.00
2008,08,15,05,15,16.00
2008,08,15,05,16,16.10
2008,08,15,05,17,16.10
2008,08,15,05,18,16.10
2008,08,15,05,19,16.10
2008,08,15,05,20,16.10
2008,08,15,05,21,16.10
2008,08,15,05,22,16.00
2008,08,15,05,23,16.00
2008,08,15,05,24,16.00
2008,08,15,05,25,16.00
2008,08,15,05,26,16.00
2008,08,15,05,27,16.00
2008,08,15,05,28,16.00
2008,08,15,05,29,16.00
2008,08,15,05,30,15.90
2008,08,15,05,31,15.90
2008,08,15,05,32,15.90
2008,08,15,05,33,15.90
2008,08,15,05,34,15.90
2008,08,15,05,35,15.90
2008,08,15,05,36,15.90
2008,08,15,05,37,15.90
2008,08,15,05,38,15.90
2008,08,15,05,39,15.90
2008,08,15,05,40,15.90
2008,08,15,05,41,15.90
2008,08,15,05,42,15.90
2008,08,15,05,43,16.00
2008,08,15,05,44,16.00
2008,08,15,05,45,16.00
2008,08,15,05,46,16.00
2008,08,15,05,47,16.00
2008,08,15,05,48,16.00
2008,08,15,05,49,16.00
2008,08,15,05,50,16.00
2008,08,15,05,51,16.00
2008,08,15,05,52,16.00
2008,08,15,05,53,16.00
2008,08,15,05,54,16.00
2008,08,15,05,55,16.00
2008,08,15,05,56,16.00
2008,08,15,05,57,16.00
2008,08,15,05,58,16.10
2008,08,15,05,59,16.10
2008,08,15,06,00,16.10
2008,08,15,06,01,16.10
2008,08,15,06,02,16.10
2008,08,15,06,03,16.10
2008,08,15,06,04,16.10
2008,08,15,06,05,16.10
2008,08,15,06,06,16.10
2008,08,15,06,07,16.10
2008,08,15,06,08,16.10
2008,08,15,06,09,16.10
2008,08,15,06,10,16.10
2008,08,15,06,11,16.10
2008,08,15,06,12,16.10
2008,08,15,06,13,16.10
2008,08,15,06,14,16.10
2008,08,15,06,15,16.10
2008,08,15,06,16,16.10
2008,08,15,06,17,16.10
2008,08,15,06,18,16.10
2008,08,15,06,19,16.10
2008,08,15,06,20,16.10
2008,08,15,06,21,16.10
2008,08,15,06,22,16.10
2008,08,15,06,23,16.10
2008,08,15,06,24,16.10
2008,08,15,06,25,16.10
2008,08,15,06,26,16.10
2008,08,15,06,27,16.10
2008,08,15,06,28,16.10
2008,08,15,06,29,16.10
2008,08,15,06,30,16.10
2008,08,15,06,31,16.10
2008,08,15,06,32,16.10
2008,08,15,06,33,16.10
2008,08,15,06,34,16.10
2008,08,15,06,35,16.10
2008,08,15,06,36,16.10
2008,08,15,06,37,16.10
2008,08,15,06,38,16.10
2008,08,15,06,39,16.10
2008,08,15,06,40,16.10
2008,08,15,06,41,16.10
2008,08,15,06,42,16.10
2008,08,15,06,43,16.10
2008,08,15,06,44,16.10
2008,08,15,06,45,16.10
2008,08,15,06,46,16.00
2008,08,15,06,47,16.00
2008,08,15,06,48,16.00
2008,08,15,06,49,16.00
2008,08,15,06,50,16.00
2008,08,15,06,51,16.00
2008,08,15,06,52,16.00
2008,08,15,06,53,16.10
2008,08,15,06,54,16.10
2008,08,15,06,55,16.10
2008,08,15,06,56,16.10
2008,08,15,06,57,16.10
2008,08,15,06,58,16.10
2008,08,15,06,59,16.10
2008,08,15,07,00,16.20
2008,08,15,07,01,16.20
2008,08,15,07,02,16.20
2008,08,15,07,03,16.20
2008,08,15,07,04,16.30
2008,08,15,07,05,16.30
2008,08,15,07,06,16.30
2008,08,15,07,07,16.30
2008,08,15,07,08,16.30
2008,08,15,07,09,16.40
2008,08,15,07,10,16.40
2008,08,15,07,11,16.40
2008,08,15,07,12,16.40
2008,08,15,07,13,16.40
2008,08,15,07,14,16.40
2008,08,15,07,15,16.40
2008,08,15,07,16,16.50
2008,08,15,07,17,16.50
2008,08,15,07,18,16.50
2008,08,15,07,19,16.60
2008,08,15,07,20,16.60
2008,08,15,07,21,16.60
2008,08,15,07,22,16.60
2008,08,15,07,23,16.60
2008,08,15,07,24,16.60
2008,08,15,07,25,16.60
2008,08,15,07,26,16.70
2008,08,15,07,27,16.70
2008,08,15,07,28,16.70
2008,08,15,07,29,16.80
2008,08,15,07,30,16.80
2008,08,15,07,31,16.80
2008,08,15,07,32,16.90
2008,08,15,07,33,16.90
2008,08,15,07,34,16.90
2008,08,15,07,35,17.00
2008,08,15,07,36,17.00
2008,08,15,07,37,17.10
2008,08,15,07,38,17.10
2008,08,15,07,39,17.10
2008,08,15,07,40,17.10
2008,08,15,07,41,17.10
2008,08,15,07,42,17.20
2008,08,15,07,43,17.20
2008,08,15,07,44,17.20
2008,08,15,07,45,17.30
2008,08,15,07,46,17.30
2008,08,15,07,47,17.40
2008,08,15,07,48,17.40
2008,08,15,07,49,17.50
2008,08,15,07,50,17.60
2008,08,15,07,51,17.60
2008,08,15,07,52,17.70
2008,08,15,07,53,17.80
2008,08,15,07,54,17.90
2008,08,15,07,55,18.00
2008,08,15,07,56,18.10
2008,08,15,07,57,18.20
2008,08,15,07,58,18.20
2008,08,15,07,59,18.30
2008,08,15,08,00,18.30
2008,08,15,08,01,18.40
2008,08,15,08,02,18.40
2008,08,15,08,03,18.50
2008,08,15,08,04,18.60
2008,08,15,08,05,18.70
2008,08,15,08,06,18.80
2008,08,15,08,07,18.80
2008,08,15,08,08,18.90
2008,08,15,08,09,19.00
2008,08,15,08,10,19.00
2008,08,15,08,11,19.10
2008,08,15,08,12,19.10
2008,08,15,08,13,19.20
2008,08,15,08,14,19.20
2008,08,15,08,15,19.30
2008,08,15,08,16,19.30
2008,08,15,08,17,19.40
2008,08,15,08,18,19.40
2008,08,15,08,19,19.50
2008,08,15,08,20,19.50
2008,08,15,08,21,19.60
2008,08,15,08,22,19.60
2008,08,15,08,23,19.70
2008,08,15,08,24,19.80
2008,08,15,08,25,19.80
2008,08,15,08,26,19.90
2008,08,15,08,27,20.00
2008,08,15,08,28,20.20
2008,08,15,08,29,20.30
2008,08,15,08,30,20.40
2008,08,15,08,31,20.50
2008,08,15,08,32,20.60
2008,08,15,08,33,20.70
2008,08,15,08,34,20.70
2008,08,15,08,35,20.80
2008,08,15,08,36,20.90
2008,08,15,08,37,21.00
2008,08,15,08,38,21.00
2008,08,15,08,39,21.10
2008,08,15,08,40,21.20
2008,08,15,08,41,21.20
2008,08,15,08,42,21.30
2008,08,15,08,43,21.40
2008,08,15,08,44,21.50
2008,08,15,08,45,21.70
2008,08,15,08,46,21.90
2008,08,15,08,47,22.10
2008,08,15,08,48,22.20
2008,08,15,08,49,22.30
2008,08,15,08,50,22.40
2008,08,15,08,51,22.60
2008,08,15,08,52,22.70
2008,08,15,08,53,22.80
2008,08,15,08,54,23.00
2008,08,15,08,55,23.10
2008,08,15,08,56,23.20
2008,08,15,08,57,23.30
2008,08,15,08,58,23.40
2008,08,15,08,59,23.50
2008,08,15,09,00,23.60
2008,08,15,09,01,23.70
2008,08,15,09,02,23.80
2008,08,15,09,03,23.90
2008,08,15,09,04,24.00
2008,08,15,09,05,24.10
2008,08,15,09,06,24.10
2008,08,15,09,07,24.20
2008,08,15,09,08,24.30
2008,08,15,09,09,24.30
2008,08,15,09,10,24.30
2008,08,15,09,11,24.40
2008,08,15,09,12,24.50
2008,08,15,09,13,24.50
2008,08,15,09,14,24.60
2008,08,15,09,15,24.60
2008,08,15,09,16,24.60
2008,08,15,09,17,24.60
2008,08,15,09,18,24.70
2008,08,15,09,19,24.70
2008,08,15,09,20,24.70
2008,08,15,09,21,24.80
2008,08,15,09,22,24.80
2008,08,15,09,23,24.80
2008,08,15,09,24,24.80
2008,08,15,09,25,24.90
2008,08,15,09,26,24.90
2008,08,15,09,27,24.90
2008,08,15,09,28,24.90
2008,08,15,09,29,24.90
2008,08,15,09,30,24.90
2008,08,15,09,31,24.90
2008,08,15,09,32,25.00
2008,08,15,09,33,25.00
2008,08,15,09,34,25.10
2008,08,15,09,35,25.20
2008,08,15,09,36,25.20
2008,08,15,09,37,25.20
2008,08,15,09,38,25.20
2008,08,15,09,39,25.10
2008,08,15,09,40,25.10
2008,08,15,09,41,25.10
2008,08,15,09,42,25.10
2008,08,15,09,43,25.10
2008,08,15,09,44,25.10
2008,08,15,09,45,25.10
2008,08,15,09,46,25.10
2008,08,15,09,47,25.20
2008,08,15,09,48,25.20
2008,08,15,09,49,25.20
2008,08,15,09,50,25.10
2008,08,15,09,51,25.10
2008,08,15,09,52,25.00
2008,08,15,09,53,25.00
2008,08,15,09,54,25.00
2008,08,15,09,55,25.10
2008,08,15,09,56,25.10
2008,08,15,09,57,25.10
2008,08,15,09,58,25.20
2008,08,15,09,59,25.30
2008,08,15,10,00,25.40
2008,08,15,10,01,25.50
2008,08,15,10,02,25.50
2008,08,15,10,03,25.60
2008,08,15,10,04,25.70
2008,08,15,10,05,25.70
2008,08,15,10,06,25.70
2008,08,15,10,07,25.70
2008,08,15,10,08,25.70
2008,08,15,10,09,25.70
2008,08,15,10,10,25.60
2008,08,15,10,11,25.60
2008,08,15,10,12,25.60
2008,08,15,10,13,25.50
2008,08,15,10,14,25.50
2008,08,15,10,15,25.50
2008,08,15,10,16,25.50
2008,08,15,10,17,25.40
2008,08,15,10,18,25.40
2008,08,15,10,19,25.40
2008,08,15,10,20,25.40
2008,08,15,10,21,25.30
2008,08,15,10,22,25.30
2008,08,15,10,23,25.20
2008,08,15,10,24,25.20
2008,08,15,10,25,25.20
2008,08,15,10,26,25.20
2008,08,15,10,27,25.20
2008,08,15,10,28,25.30
2008,08,15,10,29,25.30
2008,08,15,10,30,25.40
2008,08,15,10,31,25.40
2008,08,15,10,32,25.50
2008,08,15,10,33,25.60
2008,08,15,10,34,25.70
2008,08,15,10,35,25.70
2008,08,15,10,36,25.70
2008,08,15,10,37,25.70
2008,08,15,10,38,25.70
2008,08,15,10,39,25.60
2008,08,15,10,40,25.60
2008,08,15,10,41,25.50
2008,08,15,10,42,25.40
2008,08,15,10,43,25.20
2008,08,15,10,44,25.00
2008,08,15,10,45,24.80
2008,08,15,10,46,24.70
2008,08,15,10,47,24.60
2008,08,15,10,48,24.60
2008,08,15,10,49,24.50
2008,08,15,10,50,24.50
2008,08,15,10,51,24.50
2008,08,15,10,52,24.40
2008,08,15,10,53,24.40
2008,08,15,10,54,24.40
2008,08,15,10,55,24.40
2008,08,15,10,56,24.40
2008,08,15,10,57,24.40
2008,08,15,10,58,24.40
2008,08,15,10,59,24.40
2008,08,15,11,00,24.40
2008,08,15,11,01,24.50
2008,08,15,11,02,24.60
2008,08,15,11,03,24.70
2008,08,15,11,04,24.70
2008,08,15,11,05,24.80
2008,08,15,11,06,24.80
2008,08,15,11,07,24.80
2008,08,15,11,08,24.90
2008,08,15,11,09,24.90
2008,08,15,11,10,25.00
2008,08,15,11,11,25.10
2008,08,15,11,12,25.10
2008,08,15,11,13,25.20
2008,08,15,11,14,25.20
2008,08,15,11,15,25.20
2008,08,15,11,16,25.20
2008,08,15,11,17,25.30
2008,08,15,11,18,25.30
2008,08,15,11,19,25.30
2008,08,15,11,20,25.30
2008,08,15,11,21,25.30
2008,08,15,11,22,25.30
2008,08,15,11,23,25.30
2008,08,15,11,24,25.40
2008,08,15,11,25,25.40
2008,08,15,11,26,25.50
2008,08,15,11,27,25.50
2008,08,15,11,28,25.60
2008,08,15,11,29,25.70
2008,08,15,11,30,25.80
2008,08,15,11,31,25.90
2008,08,15,11,32,25.90
2008,08,15,11,33,26.00
2008,08,15,11,34,25.90
2008,08,15,11,35,26.00
2008,08,15,11,36,26.00
2008,08,15,11,37,26.00
2008,08,15,11,38,26.10
2008,08,15,11,39,26.10
2008,08,15,11,40,26.10
2008,08,15,11,41,26.00
2008,08,15,11,42,26.00
2008,08,15,11,43,25.90
2008,08,15,11,44,25.90
2008,08,15,11,45,25.80
2008,08,15,11,46,25.80
2008,08,15,11,47,25.80
2008,08,15,11,48,25.60
2008,08,15,11,49,25.50
2008,08,15,11,50,25.30
2008,08,15,11,51,25.10
2008,08,15,11,52,24.90
2008,08,15,11,53,24.80
2008,08,15,11,54,24.80
2008,08,15,11,55,24.70
2008,08,15,11,56,24.70
2008,08,15,11,57,24.70
2008,08,15,11,58,24.70
2008,08,15,11,59,24.70
2008,08,15,12,00,24.80
2008,08,15,12,01,24.80
2008,08,15,12,02,24.90
2008,08,15,12,03,25.10
2008,08,15,12,04,25.20
2008,08,15,12,05,25.10
2008,08,15,12,06,25.10
2008,08,15,12,07,25.00
2008,08,15,12,08,25.10
2008,08,15,12,09,25.10
2008,08,15,12,10,25.20
2008,08,15,12,11,25.20
2008,08,15,12,12,25.20
2008,08,15,12,13,25.10
2008,08,15,12,14,25.10
2008,08,15,12,15,25.10
2008,08,15,12,16,25.10
2008,08,15,12,17,25.10
2008,08,15,12,18,25.10
2008,08,15,12,19,25.20
2008,08,15,12,20,25.20
2008,08,15,12,21,25.30
2008,08,15,12,22,25.30
2008,08,15,12,23,25.30
2008,08,15,12,24,25.20
2008,08,15,12,25,25.10
2008,08,15,12,26,25.00
2008,08,15,12,27,24.90
2008,08,15,12,28,24.80
2008,08,15,12,29,24.70
2008,08,15,12,30,24.70
2008,08,15,12,31,24.70
2008,08,15,12,32,24.70
2008,08,15,12,33,24.70
2008,08,15,12,34,24.70
2008,08,15,12,35,24.70
2008,08,15,12,36,24.70
2008,08,15,12,37,24.80
2008,08,15,12,38,24.80
2008,08,15,12,39,24.80
2008,08,15,12,40,24.80
2008,08,15,12,41,24.80
2008,08,15,12,42,24.70
2008,08,15,12,43,24.70
2008,08,15,12,44,24.70
2008,08,15,12,45,24.60
2008,08,15,12,46,24.60
2008,08,15,12,47,24.60
2008,08,15,12,48,24.60
2008,08,15,12,49,24.60
2008,08,15,12,50,24.70
2008,08,15,12,51,24.70
2008,08,15,12,52,24.70
2008,08,15,12,53,24.70
2008,08,15,12,54,24.70
2008,08,15,12,55,24.80
2008,08,15,12,56,24.80
2008,08,15,12,57,24.80
2008,08,15,12,58,24.80
2008,08,15,12,59,24.80
2008,08,15,13,00,24.90
2008,08,15,13,01,25.00
2008,08,15,13,02,25.00
2008,08,15,13,03,25.10
2008,08,15,13,04,25.10
2008,08,15,13,05,25.20
2008,08,15,13,06,25.20
2008,08,15,13,07,25.30
2008,08,15,13,08,25.40
2008,08,15,13,09,25.50
2008,08,15,13,10,25.50
2008,08,15,13,11,25.60
2008,08,15,13,12,25.60
2008,08,15,13,13,25.60
2008,08,15,13,14,25.60
2008,08,15,13,15,25.60
2008,08,15,13,16,25.60
2008,08,15,13,17,25.70
2008,08,15,13,18,25.80
2008,08,15,13,19,25.80
2008,08,15,13,20,25.90
2008,08,15,13,21,25.90
2008,08,15,13,22,26.00
2008,08,15,13,23,26.10
2008,08,15,13,24,26.20
2008,08,15,13,25,26.30
2008,08,15,13,26,26.40
2008,08,15,13,27,26.40
2008,08,15,13,28,26.30
2008,08,15,13,29,26.30
2008,08,15,13,30,26.30
2008,08,15,13,31,26.30
2008,08,15,13,32,26.20
2008,08,15,13,33,26.10
2008,08,15,13,34,26.10
2008,08,15,13,35,26.10
2008,08,15,13,36,26.10
2008,08,15,13,37,26.10
2008,08,15,13,38,26.10
2008,08,15,13,39,26.20
2008,08,15,13,40,26.20
2008,08,15,13,41,26.10
2008,08,15,13,42,26.00
2008,08,15,13,43,25.90
2008,08,15,13,44,25.80
2008,08,15,13,45,25.70
2008,08,15,13,46,25.60
2008,08,15,13,47,25.60
2008,08,15,13,48,25.70
2008,08,15,13,49,25.60
2008,08,15,13,50,25.60
2008,08,15,13,51,25.60
2008,08,15,13,52,25.60
2008,08,15,13,53,25.50
2008,08,15,13,54,25.50
2008,08,15,13,55,25.40
2008,08,15,13,56,25.40
2008,08,15,13,57,25.30
2008,08,15,13,58,25.30
2008,08,15,13,59,25.30
2008,08,15,14,00,25.30
2008,08,15,14,01,25.30
2008,08,15,14,02,25.30
2008,08,15,14,03,25.40
2008,08,15,14,04,25.40
2008,08,15,14,05,25.50
2008,08,15,14,06,25.60
2008,08,15,14,07,25.70
2008,08,15,14,08,25.70
2008,08,15,14,09,25.80
2008,08,15,14,10,25.90
2008,08,15,14,11,25.90
2008,08,15,14,12,25.90
2008,08,15,14,13,25.90
2008,08,15,14,14,25.90
2008,08,15,14,15,25.90
2008,08,15,14,16,25.90
2008,08,15,14,17,25.80
2008,08,15,14,18,25.80
2008,08,15,14,19,25.70
2008,08,15,14,20,25.60
2008,08,15,14,21,25.50
2008,08,15,14,22,25.40
2008,08,15,14,23,25.30
2008,08,15,14,24,25.20
2008,08,15,14,25,25.20
2008,08,15,14,26,25.20
2008,08,15,14,27,25.20
2008,08,15,14,28,25.20
2008,08,15,14,29,25.20
2008,08,15,14,30,25.20
2008,08,15,14,31,25.20
2008,08,15,14,32,25.20
2008,08,15,14,33,25.30
2008,08,15,14,34,25.30
2008,08,15,14,35,25.40
2008,08,15,14,36,25.50
2008,08,15,14,37,25.60
2008,08,15,14,38,25.70
2008,08,15,14,39,25.80
2008,08,15,14,40,25.90
2008,08,15,14,41,25.90
2008,08,15,14,42,26.00
2008,08,15,14,43,26.10
2008,08,15,14,44,26.20
2008,08,15,14,45,26.30
2008,08,15,14,46,26.40
2008,08,15,14,47,26.50
2008,08,15,14,48,26.60
2008,08,15,14,49,26.60
2008,08,15,14,50,26.60
2008,08,15,14,51,26.60
2008,08,15,14,52,26.50
2008,08,15,14,53,26.50
2008,08,15,14,54,26.40
2008,08,15,14,55,26.40
2008,08,15,14,56,26.40
2008,08,15,14,57,26.40
2008,08,15,14,58,26.30
2008,08,15,14,59,26.40
2008,08,15,15,00,26.40
2008,08,15,15,01,26.40
2008,08,15,15,02,26.50
2008,08,15,15,03,26.40
2008,08,15,15,04,26.40
2008,08,15,15,05,26.40
2008,08,15,15,06,26.40
2008,08,15,15,07,26.30
2008,08,15,15,08,26.30
2008,08,15,15,09,26.30
2008,08,15,15,10,26.20
2008,08,15,15,11,26.20
2008,08,15,15,12,26.20
2008,08,15,15,13,26.20
2008,08,15,15,14,26.20
2008,08,15,15,15,26.10
2008,08,15,15,16,26.10
2008,08,15,15,17,26.10
2008,08,15,15,18,26.00
2008,08,15,15,19,26.00
2008,08,15,15,20,25.90
2008,08,15,15,21,25.90
2008,08,15,15,22,25.90
2008,08,15,15,23,25.90
2008,08,15,15,24,26.00
2008,08,15,15,25,26.00
2008,08,15,15,26,26.00
2008,08,15,15,27,26.10
2008,08,15,15,28,26.20
2008,08,15,15,29,26.20
2008,08,15,15,30,26.20
2008,08,15,15,31,26.20
2008,08,15,15,32,26.30
2008,08,15,15,33,26.40
2008,08,15,15,34,26.50
2008,08,15,15,35,26.70
2008,08,15,15,36,26.80
2008,08,15,15,37,27.00
2008,08,15,15,38,27.10
2008,08,15,15,39,27.20
2008,08,15,15,40,27.30
2008,08,15,15,41,27.40
2008,08,15,15,42,27.50
2008,08,15,15,43,27.60
2008,08,15,15,44,27.70
2008,08,15,15,45,27.80
2008,08,15,15,46,27.90
2008,08,15,15,47,28.00
2008,08,15,15,48,28.10
2008,08,15,15,49,28.10
2008,08,15,15,50,28.10
2008,08,15,15,51,28.20
2008,08,15,15,52,28.20
2008,08,15,15,53,28.20
2008,08,15,15,54,28.20
2008,08,15,15,55,28.10
2008,08,15,15,56,28.10
2008,08,15,15,57,28.20
2008,08,15,15,58,28.20
2008,08,15,15,59,28.30
2008,08,15,16,00,28.40
2008,08,15,16,01,28.40
2008,08,15,16,02,28.50
2008,08,15,16,03,28.40
2008,08,15,16,04,28.40
2008,08,15,16,05,28.50
2008,08,15,16,06,28.50
2008,08,15,16,07,28.40
2008,08,15,16,08,28.30
2008,08,15,16,09,28.30
2008,08,15,16,10,28.30
2008,08,15,16,11,28.20
2008,08,15,16,12,28.20
2008,08,15,16,13,28.10
2008,08,15,16,14,28.00
2008,08,15,16,15,28.00
2008,08,15,16,16,28.00
2008,08,15,16,17,28.00
2008,08,15,16,18,28.00
2008,08,15,16,19,28.00
2008,08,15,16,20,28.00
2008,08,15,16,21,27.90
2008,08,15,16,22,27.90
2008,08,15,16,23,27.80
2008,08,15,16,24,27.70
2008,08,15,16,25,27.70
2008,08,15,16,26,27.70
2008,08,15,16,27,27.60
2008,08,15,16,28,27.60
2008,08,15,16,29,27.70
2008,08,15,16,30,27.70
2008,08,15,16,31,27.80
2008,08,15,16,32,27.80
2008,08,15,16,33,27.80
2008,08,15,16,34,27.80
2008,08,15,16,35,27.80
2008,08,15,16,36,27.80
2008,08,15,16,37,27.70
2008,08,15,16,38,27.80
2008,08,15,16,39,27.80
2008,08,15,16,40,27.80
2008,08,15,16,41,27.70
2008,08,15,16,42,27.60
2008,08,15,16,43,27.60
2008,08,15,16,44,27.50
2008,08,15,16,45,27.50
2008,08,15,16,46,27.40
2008,08,15,16,47,27.40
2008,08,15,16,48,27.40
2008,08,15,16,49,27.40
2008,08,15,16,50,27.40
2008,08,15,16,51,27.40
2008,08,15,16,52,27.40
2008,08,15,16,53,27.40
2008,08,15,16,54,27.30
2008,08,15,16,55,27.20
2008,08,15,16,56,27.20
2008,08,15,16,57,27.10
2008,08,15,16,58,27.10
2008,08,15,16,59,27.10
2008,08,15,17,00,27.20
2008,08,15,17,01,27.20
2008,08,15,17,02,27.30
2008,08,15,17,03,27.30
2008,08,15,17,04,27.30
2008,08,15,17,05,27.30
2008,08,15,17,06,27.30
2008,08,15,17,07,27.40
2008,08,15,17,08,27.40
2008,08,15,17,09,27.40
2008,08,15,17,10,27.40
2008,08,15,17,11,27.30
2008,08,15,17,12,27.30
2008,08,15,17,13,27.40
2008,08,15,17,14,27.40
2008,08,15,17,15,27.50
2008,08,15,17,16,27.40
2008,08,15,17,17,27.50
2008,08,15,17,18,27.50
2008,08,15,17,19,27.50
2008,08,15,17,20,27.60
2008,08,15,17,21,27.60
2008,08,15,17,22,27.70
2008,08,15,17,23,27.70
2008,08,15,17,24,27.70
2008,08,15,17,25,27.70
2008,08,15,17,26,27.60
2008,08,15,17,27,27.60
2008,08,15,17,28,27.60
2008,08,15,17,29,27.60
2008,08,15,17,30,27.70
2008,08,15,17,31,27.80
2008,08,15,17,32,27.80
2008,08,15,17,33,27.90
2008,08,15,17,34,27.90
2008,08,15,17,35,27.90
2008,08,15,17,36,28.00
2008,08,15,17,37,28.00
2008,08,15,17,38,27.90
2008,08,15,17,39,27.90
2008,08,15,17,40,27.90
2008,08,15,17,41,27.90
2008,08,15,17,42,27.90
2008,08,15,17,43,27.90
2008,08,15,17,44,27.90
2008,08,15,17,45,27.90
2008,08,15,17,46,27.90
2008,08,15,17,47,27.90
2008,08,15,17,48,28.00
2008,08,15,17,49,28.00
2008,08,15,17,50,28.10
2008,08,15,17,51,28.10
2008,08,15,17,52,28.20
2008,08,15,17,53,28.20
2008,08,15,17,54,28.20
2008,08,15,17,55,28.30
2008,08,15,17,56,28.30
2008,08,15,17,57,28.30
2008,08,15,17,58,28.30
2008,08,15,17,59,28.30
2008,08,15,18,00,28.30
2008,08,15,18,01,28.30
2008,08,15,18,02,28.30
2008,08,15,18,03,28.30
2008,08,15,18,04,28.40
2008,08,15,18,05,28.40
2008,08,15,18,06,28.40
2008,08,15,18,07,28.50
2008,08,15,18,08,28.50
2008,08,15,18,09,28.50
2008,08,15,18,10,28.60
2008,08,15,18,11,28.60
2008,08,15,18,12,28.70
2008,08,15,18,13,28.70
2008,08,15,18,14,28.70
2008,08,15,18,15,28.60
2008,08,15,18,16,28.50
2008,08,15,18,17,28.40
2008,08,15,18,18,28.40
2008,08,15,18,19,28.30
2008,08,15,18,20,28.30
2008,08,15,18,21,28.30
2008,08,15,18,22,28.20
2008,08,15,18,23,28.10
2008,08,15,18,24,28.10
2008,08,15,18,25,28.10
2008,08,15,18,26,28.10
2008,08,15,18,27,28.10
2008,08,15,18,28,28.10
2008,08,15,18,29,28.10
2008,08,15,18,30,28.00
2008,08,15,18,31,27.90
2008,08,15,18,32,27.80
2008,08,15,18,33,27.70
2008,08,15,18,34,27.70
2008,08,15,18,35,27.60
2008,08,15,18,36,27.60
2008,08,15,18,37,27.60
2008,08,15,18,38,27.50
2008,08,15,18,39,27.50
2008,08,15,18,40,27.50
2008,08,15,18,41,27.40
2008,08,15,18,42,27.50
2008,08,15,18,43,27.50
2008,08,15,18,44,27.60
2008,08,15,18,45,27.60
2008,08,15,18,46,27.70
2008,08,15,18,47,27.70
2008,08,15,18,48,27.80
2008,08,15,18,49,27.80
2008,08,15,18,50,27.90
2008,08,15,18,51,27.90
2008,08,15,18,52,28.00
2008,08,15,18,53,28.10
2008,08,15,18,54,28.10
2008,08,15,18,55,28.20
2008,08,15,18,56,28.20
2008,08,15,18,57,28.30
2008,08,15,18,58,28.30
2008,08,15,18,59,28.40
2008,08,15,19,00,28.40
2008,08,15,19,01,28.50
2008,08,15,19,02,28.50
2008,08,15,19,03,28.60
2008,08,15,19,04,28.60
2008,08,15,19,05,28.70
2008,08,15,19,06,28.60
2008,08,15,19,07,28.60
2008,08,15,19,08,28.60
2008,08,15,19,09,28.50
2008,08,15,19,10,28.50
2008,08,15,19,11,28.40
2008,08,15,19,12,28.40
2008,08,15,19,13,28.30
2008,08,15,19,14,28.20
2008,08,15,19,15,28.20
2008,08,15,19,16,28.20
2008,08,15,19,17,28.20
2008,08,15,19,18,28.10
2008,08,15,19,19,28.10
2008,08,15,19,20,28.10
2008,08,15,19,21,28.00
2008,08,15,19,22,28.00
2008,08,15,19,23,28.00
2008,08,15,19,24,27.90
2008,08,15,19,25,27.90
2008,08,15,19,26,27.90
2008,08,15,19,27,27.90
2008,08,15,19,28,27.80
2008,08,15,19,29,27.80
2008,08,15,19,30,27.80
2008,08,15,19,31,27.70
2008,08,15,19,32,27.60
2008,08,15,19,33,27.50
2008,08,15,19,34,27.50
2008,08,15,19,35,27.40
2008,08,15,19,36,27.30
2008,08,15,19,37,27.30
2008,08,15,19,38,27.20
2008,08,15,19,39,27.20
2008,08,15,19,40,27.10
2008,08,15,19,41,27.10
2008,08,15,19,42,27.00
2008,08,15,19,43,27.00
2008,08,15,19,44,27.00
2008,08,15,19,45,26.90
2008,08,15,19,46,26.90
2008,08,15,19,47,26.90
2008,08,15,19,48,26.80
2008,08,15,19,49,26.80
2008,08,15,19,50,26.80
2008,08,15,19,51,26.80
2008,08,15,19,52,26.70
2008,08,15,19,53,26.70
2008,08,15,19,54,26.70
2008,08,15,19,55,26.70
2008,08,15,19,56,26.60
2008,08,15,19,57,26.60
2008,08,15,19,58,26.50
2008,08,15,19,59,26.40
2008,08,15,20,00,26.40
2008,08,15,20,01,26.30
2008,08,15,20,02,26.30
2008,08,15,20,03,26.20
2008,08,15,20,04,26.10
2008,08,15,20,05,26.00
2008,08,15,20,06,25.90
2008,08,15,20,07,25.90
2008,08,15,20,08,25.90
2008,08,15,20,09,25.90
2008,08,15,20,10,25.90
2008,08,15,20,11,25.80
2008,08,15,20,12,25.80
2008,08,15,20,13,25.80
2008,08,15,20,14,25.70
2008,08,15,20,15,25.60
2008,08,15,20,16,25.50
2008,08,15,20,17,25.50
2008,08,15,20,18,25.40
2008,08,15,20,19,25.40
2008,08,15,20,20,25.30
2008,08,15,20,21,25.20
2008,08,15,20,22,25.20
2008,08,15,20,23,25.10
2008,08,15,20,24,25.10
2008,08,15,20,25,25.00
2008,08,15,20,26,25.00
2008,08,15,20,27,24.90
2008,08,15,20,28,24.80
2008,08,15,20,29,24.70
2008,08,15,20,30,24.70
2008,08,15,20,31,24.60
2008,08,15,20,32,24.60
2008,08,15,20,33,24.50
2008,08,15,20,34,24.50
2008,08,15,20,35,24.40
2008,08,15,20,36,24.40
2008,08,15,20,37,24.30
2008,08,15,20,38,24.30
2008,08,15,20,39,24.30
2008,08,15,20,40,24.20
2008,08,15,20,41,24.10
2008,08,15,20,42,24.10
2008,08,15,20,43,24.00
2008,08,15,20,44,23.90
2008,08,15,20,45,23.90
2008,08,15,20,46,23.90
2008,08,15,20,47,23.80
2008,08,15,20,48,23.80
2008,08,15,20,49,23.70
2008,08,15,20,50,23.60
2008,08,15,20,51,23.60
2008,08,15,20,52,23.50
2008,08,15,20,53,23.50
2008,08,15,20,54,23.40
2008,08,15,20,55,23.40
2008,08,15,20,56,23.30
2008,08,15,20,57,23.20
2008,08,15,20,58,23.20
2008,08,15,20,59,23.10
2008,08,15,21,00,23.10
2008,08,15,21,01,23.00
2008,08,15,21,02,23.00
2008,08,15,21,03,22.90
2008,08,15,21,04,22.90
2008,08,15,21,05,22.90
2008,08,15,21,06,22.80
2008,08,15,21,07,22.80
2008,08,15,21,08,22.80
2008,08,15,21,09,22.80
2008,08,15,21,10,22.70
2008,08,15,21,11,22.70
2008,08,15,21,12,22.60
2008,08,15,21,13,22.60
2008,08,15,21,14,22.60
2008,08,15,21,15,22.50
2008,08,15,21,16,22.50
2008,08,15,21,17,22.40
2008,08,15,21,18,22.40
2008,08,15,21,19,22.30
2008,08,15,21,20,22.30
2008,08,15,21,21,22.30
2008,08,15,21,22,22.30
2008,08,15,21,23,22.20
2008,08,15,21,24,22.20
2008,08,15,21,25,22.20
2008,08,15,21,26,22.20
2008,08,15,21,27,22.10
2008,08,15,21,28,22.10
2008,08,15,21,29,22.10
2008,08,15,21,30,22.10
2008,08,15,21,31,22.00
2008,08,15,21,32,22.00
2008,08,15,21,33,22.00
2008,08,15,21,34,21.90
2008,08,15,21,35,21.90
2008,08,15,21,36,21.90
2008,08,15,21,37,21.80
2008,08,15,21,38,21.80
2008,08,15,21,39,21.80
2008,08,15,21,40,21.80
2008,08,15,21,41,21.70
2008,08,15,21,42,21.70
2008,08,15,21,43,21.70
2008,08,15,21,44,21.70
2008,08,15,21,45,21.60
2008,08,15,21,46,21.60
2008,08,15,21,47,21.60
2008,08,15,21,48,21.50
2008,08,15,21,49,21.50
2008,08,15,21,50,21.40
2008,08,15,21,51,21.40
2008,08,15,21,52,21.40
2008,08,15,21,53,21.40
2008,08,15,21,54,21.30
2008,08,15,21,55,21.30
2008,08,15,21,56,21.30
2008,08,15,21,57,21.30
2008,08,15,21,58,21.20
2008,08,15,21,59,21.20
2008,08,15,22,00,21.20
2008,08,15,22,01,21.20
2008,08,15,22,02,21.20
2008,08,15,22,03,21.10
2008,08,15,22,04,21.10
2008,08,15,22,05,21.10
2008,08,15,22,06,21.10
2008,08,15,22,07,21.10
2008,08,15,22,08,21.10
2008,08,15,22,09,21.10
2008,08,15,22,10,21.10
2008,08,15,22,11,21.10
2008,08,15,22,12,21.10
2008,08,15,22,13,21.10
2008,08,15,22,14,21.10
2008,08,15,22,15,21.10
2008,08,15,22,16,21.10
2008,08,15,22,17,21.10
2008,08,15,22,18,21.10
2008,08,15,22,19,21.10
2008,08,15,22,20,21.10
2008,08,15,22,21,21.10
2008,08,15,22,22,21.10
2008,08,15,22,23,21.10
2008,08,15,22,24,21.10
2008,08,15,22,25,21.10
2008,08,15,22,26,21.00
2008,08,15,22,27,21.00
2008,08,15,22,28,20.90
2008,08,15,22,29,20.90
2008,08,15,22,30,20.90
2008,08,15,22,31,20.80
2008,08,15,22,32,20.80